Location: Alafon
(8.4500°N, 4.2333°E)
Time: 22:15:42
(UTC+00:00)

Vanguard 2 - Pass Details

Date: 11 August 2021
Orbit: 553 x 2937 km, 32.9° (Epoch: 26 September)

Event Time Altitude Azimuth Distance (km) Brightness Sun altitude
Rises 22:47:12 0° 251° (WSW) 5,602 12.0 -62.1°
Enters shadow 22:49:33 - 254° (WSW) 4,883 11.7 -62.4°
Reaches altitude 10° 22:51:47 10° 258° (WSW) 4,190 - -62.7°
Maximum altitude 23:01:18 40° 323° (NW) 1,766 - -63.9°
Drops below altitude 10° 23:07:14 10° 33° (NNE) 2,611 - -64.5°
Sets 23:09:29 0° 41° (NE) 3,332 - -64.7°
